• In Österreich
  • Länderverzeichnis
  • Für 7 Tage
  • Wassertemperatur
  • Satellitenkarten
  • Wetterkarte
  • News
  • Widgets
  • user-avatar
    Anmelden

    Stündliche Wetter Oran

    Heute, 24 Februar, Samstag

    Zeit Temperatur Niederschläge Wind Luftdruck Luftfeuchtigkeit
    00:00 +7°C° 0 mm 4 m/S 743 mmHg 71%
    01:00 +7°C° 0 mm 4 m/S 743 mmHg 72%
    02:00 +7°C° 0 mm 4 m/S 743 mmHg 73%
    03:00 +6°C° 0 mm 4 m/S 743 mmHg 74%
    04:00 +6°C° 0 mm 4 m/S 743 mmHg 75%
    05:00 +6°C° 0 mm 4 m/S 743 mmHg 76%
    06:00 +5°C° 0 mm 4 m/S 743 mmHg 77%
    07:00 +7°C° 0 mm 4 m/S 743 mmHg 70%
    08:00 +10°C° 0 mm 3 m/S 743 mmHg 63%
    09:00 +11°C° 0 mm 3 m/S 744 mmHg 57%
    10:00 +12°C° 0 mm 3 m/S 744 mmHg 53%
    11:00 +13°C° 0 mm 3 m/S 744 mmHg 49%
    12:00 +14°C° 0 mm 4 m/S 744 mmHg 45%
    13:00 +14°C° 0 mm 4 m/S 744 mmHg 45%
    14:00 +15°C° 0 mm 4 m/S 744 mmHg 46%
    15:00 +15°C° 0 mm 4 m/S 744 mmHg 46%
    16:00 +13°C° 0 mm 4 m/S 744 mmHg 53%
    17:00 +12°C° 0 mm 3 m/S 745 mmHg 59%
    18:00 +10°C° 0 mm 3 m/S 745 mmHg 66%
    19:00 +9°C° 0 mm 2 m/S 746 mmHg 71%
    20:00 +8°C° 0 mm 2 m/S 746 mmHg 76%
    21:00 +9°C° 0 mm 1 m/S 747 mmHg 82%
    22:00 +8°C° 0 mm 1 m/S 747 mmHg 82%
    23:00 +8°C° 0 mm 1 m/S 748 mmHg 83%

    Morgen, 25 Februar, Sonntag

    Zeit Temperatur Niederschläge Wind Luftdruck Luftfeuchtigkeit
    00:00 +8°C° 0 mm 1 m/S 748 mmHg 84%
    01:00 +7°C° 0 mm 1 m/S 748 mmHg 85%
    02:00 +7°C° 0 mm 1 m/S 748 mmHg 85%
    03:00 +7°C° 0 mm 1 m/S 748 mmHg 85%
    04:00 +7°C° 0 mm 1 m/S 748 mmHg 84%
    05:00 +8°C° 0 mm 1 m/S 748 mmHg 84%
    06:00 +8°C° 0 mm 1 m/S 748 mmHg 83%
    07:00 +10°C° 0 mm 1 m/S 748 mmHg 74%
    08:00 +11°C° 0 mm 1 m/S 749 mmHg 66%
    09:00 +13°C° 0 mm 1 m/S 749 mmHg 57%
    10:00 +14°C° 0 mm 1 m/S 749 mmHg 52%
    11:00 +16°C° 0 mm 1 m/S 749 mmHg 47%
    12:00 +18°C° 0 mm 1 m/S 749 mmHg 42%
    13:00 +18°C° 0 mm 1 m/S 748 mmHg 42%
    14:00 +18°C° 0 mm 2 m/S 748 mmHg 42%
    15:00 +18°C° 0 mm 2 m/S 748 mmHg 42%
    16:00 +16°C° 0 mm 2 m/S 748 mmHg 48%
    17:00 +15°C° 0 mm 2 m/S 748 mmHg 54%
    18:00 +13°C° 0 mm 2 m/S 748 mmHg 60%
    19:00 +12°C° 0 mm 2 m/S 748 mmHg 64%
    20:00 +10°C° 0 mm 2 m/S 748 mmHg 67%
    21:00 +10°C° 0 mm 2 m/S 748 mmHg 71%
    22:00 +10°C° 0 mm 1 m/S 748 mmHg 71%
    23:00 +10°C° 0 mm 1 m/S 748 mmHg 71%

    übermorgen, 26 Februar, Montag

    Zeit Temperatur Niederschläge Wind Luftdruck Luftfeuchtigkeit
    00:00 +10°C° 0 mm 1 m/S 748 mmHg 72%
    01:00 +10°C° 0 mm 1 m/S 747 mmHg 72%
    02:00 +9°C° 0 mm 2 m/S 747 mmHg 72%
    03:00 +8°C° 0 mm 2 m/S 746 mmHg 73%
    04:00 +8°C° 0 mm 2 m/S 746 mmHg 73%
    05:00 +8°C° 0 mm 2 m/S 745 mmHg 73%
    06:00 +8°C° 0 mm 2 m/S 745 mmHg 73%
    07:00 +12°C° 0 mm 2 m/S 745 mmHg 64%
    08:00 +14°C° 0 mm 2 m/S 745 mmHg 55%
    09:00 +16°C° 0 mm 2 m/S 745 mmHg 47%
    10:00 +18°C° 0 mm 2 m/S 744 mmHg 43%
    11:00 +19°C° 0 mm 2 m/S 744 mmHg 40%
    12:00 +21°C° 0 mm 2 m/S 743 mmHg 36%
    13:00 +21°C° 0 mm 3 m/S 743 mmHg 37%
    14:00 +21°C° 0 mm 3 m/S 742 mmHg 38%
    15:00 +21°C° 0 mm 4 m/S 741 mmHg 38%
    16:00 +19°C° 0 mm 3 m/S 741 mmHg 45%
    17:00 +17°C° 0 mm 3 m/S 741 mmHg 51%
    18:00 +16°C° 0 mm 3 m/S 741 mmHg 57%
    19:00 +15°C° 0 mm 2 m/S 742 mmHg 60%
    20:00 +15°C° 0 mm 2 m/S 742 mmHg 63%
    21:00 +14°C° 0 mm 1 m/S 743 mmHg 66%
    22:00 +14°C° 0,2 mm 2 m/S 743 mmHg 69%
    23:00 +12°C° 0,2 mm 4 m/S 744 mmHg 73%

    27 Februar, Dienstag

    Zeit Temperatur Niederschläge Wind Luftdruck Luftfeuchtigkeit
    00:00 +12°C° 0,2 mm 5 m/S 744 mmHg 77%
    01:00 +12°C° 0,9 mm 5 m/S 744 mmHg 80%
    02:00 +12°C° 0,9 mm 5 m/S 744 mmHg 83%
    03:00 +12°C° 0,9 mm 5 m/S 744 mmHg 85%
    04:00 +12°C° 0,5 mm 5 m/S 744 mmHg 83%
    05:00 +10°C° 0,5 mm 6 m/S 743 mmHg 81%
    06:00 +10°C° 0,5 mm 6 m/S 743 mmHg 79%
    07:00 +12°C° 0,1 mm 7 m/S 744 mmHg 73%
    08:00 +14°C° 0,1 mm 7 m/S 744 mmHg 68%
    09:00 +15°C° 0,1 mm 8 m/S 744 mmHg 63%
    10:00 +16°C° 0,1 mm 9 m/S 744 mmHg 57%
    11:00 +18°C° 0,1 mm 10 m/S 744 mmHg 51%
    12:00 +19°C° 0,1 mm 11 m/S 744 mmHg 46%
    13:00 +19°C° 0 mm 12 m/S 744 mmHg 47%
    14:00 +19°C° 0 mm 12 m/S 744 mmHg 48%
    15:00 +19°C° 0 mm 13 m/S 744 mmHg 49%
    16:00 +17°C° 0 mm 11 m/S 744 mmHg 56%
    17:00 +16°C° 0 mm 10 m/S 744 mmHg 63%
    18:00 +15°C° 0 mm 9 m/S 745 mmHg 70%
    19:00 +13°C° 0 mm 8 m/S 745 mmHg 74%
    20:00 +12°C° 0 mm 7 m/S 746 mmHg 78%
    21:00 +13°C° 0 mm 6 m/S 746 mmHg 83%
    22:00 +13°C° 0 mm 6 m/S 746 mmHg 83%
    23:00 +12°C° 0 mm 5 m/S 746 mmHg 83%

    28 Februar, Mittwoch

    Zeit Temperatur Niederschläge Wind Luftdruck Luftfeuchtigkeit
    00:00 +12°C° 0 mm 5 m/S 746 mmHg 83%
    01:00 +11°C° 0 mm 4 m/S 746 mmHg 82%
    02:00 +11°C° 0 mm 4 m/S 745 mmHg 81%
    03:00 +10°C° 0 mm 3 m/S 745 mmHg 80%
    04:00 +10°C° 0 mm 3 m/S 745 mmHg 77%
    05:00 +11°C° 0 mm 3 m/S 744 mmHg 73%
    06:00 +11°C° 0 mm 3 m/S 744 mmHg 70%
    07:00 +14°C° 0 mm 2 m/S 744 mmHg 60%
    08:00 +16°C° 0 mm 2 m/S 744 mmHg 50%
    09:00 +19°C° 0 mm 2 m/S 744 mmHg 40%
    10:00 +21°C° 0 mm 2 m/S 743 mmHg 35%
    11:00 +24°C° 0 mm 2 m/S 743 mmHg 30%
    12:00 +26°C° 0 mm 2 m/S 743 mmHg 25%
    13:00 +26°C° 0 mm 2 m/S 742 mmHg 25%
    14:00 +27°C° 0 mm 2 m/S 741 mmHg 25%
    15:00 +27°C° 0 mm 2 m/S 741 mmHg 25%
    16:00 +25°C° 0 mm 2 m/S 740 mmHg 31%
    17:00 +21°C° 0 mm 2 m/S 740 mmHg 36%
    18:00 +20°C° 0 mm 1 m/S 740 mmHg 42%
    19:00 +18°C° 0 mm 2 m/S 740 mmHg 42%
    20:00 +18°C° 0 mm 3 m/S 740 mmHg 43%
    21:00 +17°C° 0 mm 4 m/S 741 mmHg 43%
    22:00 +15°C° 0 mm 4 m/S 740 mmHg 51%
    23:00 +14°C° 0 mm 3 m/S 740 mmHg 59%

    1 März, Donnerstag

    Zeit Temperatur Niederschläge Wind Luftdruck Luftfeuchtigkeit
    00:00 +14°C° 0 mm 3 m/S 740 mmHg 67%
    01:00 +15°C° 0 mm 2 m/S 739 mmHg 65%
    02:00 +15°C° 0 mm 2 m/S 739 mmHg 63%
    03:00 +15°C° 0 mm 2 m/S 738 mmHg 62%
    04:00 +15°C° 0 mm 2 m/S 737 mmHg 58%
    05:00 +16°C° 0 mm 3 m/S 737 mmHg 53%
    06:00 +15°C° 0 mm 4 m/S 736 mmHg 49%
    07:00 +18°C° 0 mm 4 m/S 736 mmHg 44%
    08:00 +20°C° 0 mm 5 m/S 736 mmHg 39%
    09:00 +22°C° 0 mm 6 m/S 736 mmHg 34%
    10:00 +22°C° 0,1 mm 8 m/S 736 mmHg 36%
    11:00 +22°C° 0,1 mm 10 m/S 736 mmHg 38%
    12:00 +22°C° 0,1 mm 12 m/S 736 mmHg 40%
    13:00 +22°C° 0 mm 12 m/S 736 mmHg 40%
    14:00 +23°C° 0 mm 12 m/S 736 mmHg 40%
    15:00 +23°C° 0 mm 12 m/S 736 mmHg 40%
    16:00 +21°C° 0 mm 11 m/S 736 mmHg 45%
    17:00 +19°C° 0 mm 9 m/S 736 mmHg 50%
    18:00 +18°C° 0 mm 8 m/S 737 mmHg 55%
    19:00 +18°C° 0,1 mm 9 m/S 737 mmHg 56%
    20:00 +17°C° 0,1 mm 10 m/S 737 mmHg 57%
    21:00 +17°C° 0,1 mm 12 m/S 737 mmHg 58%
    22:00 +15°C° 0,2 mm 13 m/S 738 mmHg 63%
    23:00 +14°C° 0,2 mm 15 m/S 739 mmHg 68%
    Mehr zeigen